Weather History for New York, NY

Change the Weather History Date:

Friday, September 23, 2011

  Actual Average Record
Temperature  
Mean Temperature 72 °F 66 °F  
Max Temperature 74 °F 74 °F 93 °F (1970)
Min Temperature 69 °F 59 °F 42 °F (1947)
Degree Days  
Heating Degree Days 0 2  
Month to date heating degree days 19 14  
Since 1 July heating degree days 19 15  
Cooling Degree Days 7 3  
Month to date cooling degree days 146 141  
Year to date cooling degree days 1299 1174  
Growing Degree Days 21 (Base 50)    
Moisture  
Dew Point 68 °F    
Average Humidity 91    
Maximum Humidity 97    
Minimum Humidity 84    
Precipitation  
Precipitation 2.14 in 0.12 in 2.14 in (2011)
Month to date precipitation 6.44 2.81  
Year to date precipitation 52.84 33.06  
Snow  
Snow 0.00 in 0.00 in - ()
Month to date snowfall 0.0 0.0  
Since 1 July snowfall 0.0 0.0  
Snow Depth 0.00 in    
Sea Level Pressure  
Sea Level Pressure 30.04 in    
Wind  
Wind Speed 7 mph (SE)    
Max Wind Speed 15 mph    
Max Gust Speed 18 mph    
Visibility 6 miles    
Events Fog , Rain    
T = Trace of Precipitation, MM = Missing Value Source: NWS Daily Summary

Daily Weather History Graph

Daily Weather History Graph

Search for Another Location

Airport:

Trip Planner

Search our weather history database for the weather conditions in past years. The results will help you decide how hot, cold, wet, or windy it might be!

Date:

Astronomy

Sep. 23, 2011 Rise Set
Actual Time 6:43 AM EDT 6:51 PM EDT
Civil Twilight 6:16 AM EDT 7:18 PM EDT
Nautical Twilight 5:44 AM EDT 7:50 PM EDT
Astronomical Twilight 5:11 AM EDT 8:23 PM EDT
Moon 2:05 AM EDT (9/23) 4:21 PM EDT (9/23)
Length of Visible Light 13h 02m
Length of Day
12h 07m
Waning Crescent, 19% of the Moon is Illuminated
Sep 23
Waning Crescent
Sep 27
New
Oct 3
First Quarter
Oct 11
Full
Oct 19
Last Quarter

Hourly Weather History & Observations

Time (EDT) Temp. Dew Point Humidity Pressure Visibility Wind Dir Wind Speed Gust Speed Precip Events Conditions
12:51 AM 72.0 °F 68.0 °F 87% 30.11 in 10.0 mi South 5.8 mph - N/A   Overcast
1:51 AM 71.1 °F 68.0 °F 90% 30.12 in 9.0 mi Calm Calm - N/A   Overcast
2:51 AM 71.1 °F 68.0 °F 90% 30.10 in 8.0 mi East 3.5 mph - N/A   Overcast
3:31 AM 71.6 °F 68.0 °F 88% 30.10 in 8.0 mi SE 3.5 mph - N/A   Overcast
3:51 AM 71.1 °F 68.0 °F 90% 30.10 in 8.0 mi SSE 3.5 mph - N/A   Overcast
4:01 AM 71.6 °F 68.0 °F 88% 30.10 in 8.0 mi SE 3.5 mph - N/A   Overcast
4:51 AM 71.1 °F 68.0 °F 90% 30.10 in 7.0 mi East 3.5 mph - N/A   Overcast
5:47 AM 69.8 °F 68.0 °F 94% 30.10 in 5.0 mi East 5.8 mph - N/A   Overcast
5:51 AM 70.0 °F 68.0 °F 93% 30.09 in 5.0 mi East 4.6 mph - N/A   Overcast
6:30 AM 69.8 °F 68.0 °F 94% 30.09 in 1.5 mi Variable 3.5 mph - N/A   Overcast
6:51 AM 69.8 °F 68.0 °F 94% 30.10 in 1.0 mi Variable 5.8 mph - N/A   Overcast
7:51 AM 70.0 °F 68.0 °F 93% 30.10 in 1.5 mi ENE 5.8 mph - N/A   Overcast
8:04 AM 69.8 °F 68.0 °F 94% 30.10 in 0.8 mi ENE 6.9 mph - N/A   Overcast
8:05 AM 69.8 °F 68.0 °F 94% 30.10 in 1.0 mi ENE 5.8 mph - N/A   Overcast
8:13 AM 69.8 °F 68.0 °F 94% 30.10 in 1.5 mi ENE 8.1 mph - N/A   Overcast
8:26 AM 69.8 °F 68.0 °F 94% 30.10 in 2.0 mi ENE 9.2 mph - N/A   Overcast
8:51 AM 71.1 °F 68.0 °F 90% 30.10 in 2.5 mi ENE 8.1 mph - N/A   Overcast
9:11 AM 71.6 °F 68.0 °F 88% 30.09 in 3.0 mi ENE 6.9 mph - N/A   Overcast
9:28 AM 71.6 °F 68.0 °F 88% 30.10 in 4.0 mi ENE 6.9 mph - N/A   Overcast
9:51 AM 72.0 °F 68.0 °F 87% 30.10 in 5.0 mi East 8.1 mph - 0.00 in   Overcast
10:18 AM 73.4 °F 68.0 °F 83% 30.10 in 2.0 mi SE 9.2 mph - N/A   Haze
10:51 AM 71.1 °F 68.0 °F 90% 30.09 in 1.5 mi Variable 6.9 mph - 0.00 in Rain Light Rain
11:21 AM 71.6 °F 69.8 °F 94% 30.09 in 2.5 mi ESE 6.9 mph - 0.00 in Rain Light Rain
11:46 AM 71.6 °F 68.0 °F 88% 30.08 in 5.0 mi SE 9.2 mph - 0.05 in Rain Light Rain
11:47 AM 71.1 °F 68.0 °F 90% 30.08 in 5.0 mi SE 10.4 mph - 0.05 in Rain Light Rain
12:10 PM 71.6 °F 68.0 °F 88% 30.09 in 1.5 mi South 10.4 mph - 0.08 in Rain Heavy Rain
12:38 PM 69.8 °F 68.0 °F 94% 30.08 in 2.0 mi South 5.8 mph - 0.37 in Rain Heavy Rain
12:51 PM 70.0 °F 68.0 °F 93% 30.08 in 2.0 mi SSE 8.1 mph - 0.55 in Rain Heavy Rain
1:27 PM 69.8 °F 68.0 °F 94% 30.07 in 0.5 mi SSW 3.5 mph - 0.25 in Fog , Rain Heavy Rain
1:44 PM 69.8 °F 68.0 °F 94% 30.06 in 1.5 mi WSW 4.6 mph - 0.93 in Rain Heavy Rain
1:51 PM 69.1 °F 66.9 °F 93% 30.05 in 2.5 mi West 8.1 mph - 1.03 in Rain Heavy Rain
2:30 PM 69.8 °F 68.0 °F 94% 30.04 in 4.0 mi SSW 10.4 mph - 0.15 in Rain Light Rain
2:51 PM 71.1 °F 69.1 °F 93% 30.03 in 6.0 mi South 9.2 mph - 0.16 in Rain Light Rain
3:25 PM 71.6 °F 68.0 °F 88% 30.02 in 7.0 mi South 5.8 mph - 0.05 in Rain Light Rain
3:32 PM 71.6 °F 68.0 °F 88% 30.02 in 1.8 mi Variable 4.6 mph - N/A Rain Heavy Rain
3:43 PM 71.6 °F 68.0 °F 88% 30.01 in 2.0 mi South 10.4 mph - 0.18 in Rain Rain
3:51 PM 71.1 °F 68.0 °F 90% 30.01 in 2.5 mi SSE 8.1 mph - 0.21 in Rain Rain
4:06 PM 71.6 °F 68.0 °F 88% 30.00 in 5.0 mi SSE 10.4 mph 18.4 mph 0.02 in Rain Light Rain
4:51 PM 72.0 °F 68.0 °F 87% 30.00 in 10.0 mi SSE 10.4 mph 16.1 mph 0.02 in   Overcast
5:08 PM 71.6 °F 66.2 °F 83% 29.99 in 10.0 mi SSE 13.8 mph - N/A   Overcast
5:25 PM 71.6 °F 66.2 °F 83% 29.99 in 10.0 mi SSE 9.2 mph - 0.00 in Rain Light Rain
5:49 PM 71.6 °F 66.2 °F 83% 29.99 in 8.0 mi SSE 6.9 mph - 0.00 in Rain Light Rain
5:51 PM 71.1 °F 66.9 °F 87% 29.99 in 9.0 mi SSE 5.8 mph - 0.00 in Rain Light Rain
6:00 PM 69.8 °F 66.2 °F 88% 29.99 in 9.0 mi SE 6.9 mph - 0.00 in Rain Light Rain
6:14 PM 69.8 °F 66.2 °F 88% 29.99 in 10.0 mi SE 6.9 mph - 0.00 in   Overcast
6:51 PM 72.0 °F 68.0 °F 87% 29.98 in 10.0 mi SE 8.1 mph - 0.01 in Rain Light Rain
7:05 PM 71.6 °F 68.0 °F 88% 29.97 in 10.0 mi ESE 8.1 mph - 0.00 in Rain Light Rain
7:16 PM 71.6 °F 68.0 °F 88% 29.97 in 10.0 mi East 9.2 mph - 0.00 in Rain Light Rain
7:51 PM 72.0 °F 68.0 °F 87% 29.98 in 10.0 mi SE 9.2 mph - 0.01 in Rain Light Rain
8:44 PM 73.4 °F 69.8 °F 88% 29.97 in 10.0 mi ESE 9.2 mph - 0.03 in Rain Light Rain
8:51 PM 73.0 °F 68.0 °F 84% 29.97 in 10.0 mi SE 8.1 mph - 0.03 in Rain Light Rain
9:42 PM 73.4 °F 68.0 °F 83% 29.96 in 7.0 mi SE 8.1 mph - 0.05 in Rain Light Rain
9:51 PM 72.0 °F 68.0 °F 87% 29.95 in 9.0 mi ESE 8.1 mph - 0.05 in Rain Light Rain
10:16 PM 71.6 °F 68.0 °F 88% 29.94 in 10.0 mi SE 11.5 mph - 0.01 in Rain Light Rain
10:36 PM 71.6 °F 69.8 °F 94% 29.94 in 5.0 mi SE 9.2 mph - 0.01 in Rain Light Rain
10:49 PM 71.6 °F 69.8 °F 94% 29.94 in 10.0 mi SE 6.9 mph - 0.02 in   Overcast
10:51 PM 71.1 °F 69.1 °F 93% 29.94 in 10.0 mi SE 5.8 mph - 0.02 in   Overcast
11:32 PM 71.6 °F 69.8 °F 94% 29.94 in 10.0 mi SSE 5.8 mph - N/A   Overcast
11:44 PM 71.6 °F 69.8 °F 94% 29.94 in 10.0 mi SSE 8.1 mph - N/A   Overcast
11:51 PM 72.0 °F 69.1 °F 91% 29.94 in 10.0 mi SSE 9.2 mph - N/A   Overcast